EN

Hourly Weather Bolshie Kovali

Today, 21 October, Wednesday

Time Temperature Precipitation Wind Pressure Humidity
00:00 0°C° 0.4 mm 3 mps 744 mmHg 96%
01:00 0°C° 0.2 mm 3 mps 744 mmHg 93%
02:00 -1°C° 0.2 mm 4 mps 744 mmHg 90%
03:00 -1°C° 0.2 mm 4 mps 744 mmHg 88%
04:00 -1°C° 0 mm 5 mps 744 mmHg 88%
05:00 -2°C° 0 mm 5 mps 744 mmHg 89%
06:00 -2°C° 0 mm 5 mps 744 mmHg 89%
07:00 -2°C° 0.1 mm 5 mps 744 mmHg 84%
08:00 -2°C° 0.1 mm 6 mps 745 mmHg 79%
09:00 -2°C° 0.1 mm 6 mps 745 mmHg 74%
10:00 -2°C° 0 mm 6 mps 745 mmHg 72%
11:00 -2°C° 0 mm 7 mps 745 mmHg 70%
12:00 -2°C° 0 mm 7 mps 745 mmHg 68%
13:00 -2°C° 0 mm 7 mps 746 mmHg 69%
14:00 -2°C° 0 mm 6 mps 746 mmHg 69%
15:00 -2°C° 0 mm 6 mps 746 mmHg 70%
16:00 -3°C° 0 mm 6 mps 747 mmHg 76%
17:00 -2°C° 0 mm 5 mps 747 mmHg 82%
18:00 -4°C° 0 mm 5 mps 747 mmHg 87%
19:00 -4°C° 0 mm 5 mps 747 mmHg 86%
20:00 -4°C° 0 mm 5 mps 747 mmHg 86%
21:00 -4°C° 0 mm 5 mps 748 mmHg 85%
22:00 -4°C° 0 mm 5 mps 748 mmHg 84%
23:00 -4°C° 0 mm 5 mps 748 mmHg 84%

Tomorrow, 22 October, Thursday

Time Temperature Precipitation Wind Pressure Humidity
00:00 -4°C° 0 mm 5 mps 748 mmHg 83%
01:00 -4°C° 0 mm 5 mps 748 mmHg 84%
02:00 -4°C° 0 mm 5 mps 748 mmHg 85%
03:00 -4°C° 0 mm 4 mps 749 mmHg 86%
04:00 -4°C° 0 mm 4 mps 749 mmHg 86%
05:00 -4°C° 0 mm 4 mps 749 mmHg 87%
06:00 -4°C° 0 mm 4 mps 749 mmHg 87%
07:00 -4°C° 0 mm 4 mps 749 mmHg 85%
08:00 -3°C° 0 mm 4 mps 749 mmHg 83%
09:00 -4°C° 0 mm 5 mps 749 mmHg 80%
10:00 -2°C° 0 mm 4 mps 749 mmHg 78%
11:00 -2°C° 0 mm 4 mps 749 mmHg 75%
12:00 -1°C° 0 mm 4 mps 749 mmHg 73%
13:00 -1°C° 0 mm 4 mps 750 mmHg 71%
14:00 -1°C° 0 mm 4 mps 750 mmHg 70%
15:00 -1°C° 0 mm 4 mps 750 mmHg 69%
16:00 0°C° 0 mm 3 mps 750 mmHg 70%
17:00 0°C° 0 mm 3 mps 750 mmHg 71%
18:00 -1°C° 0 mm 2 mps 750 mmHg 72%
19:00 -1°C° 0 mm 2 mps 750 mmHg 73%
20:00 -1°C° 0 mm 2 mps 750 mmHg 74%
21:00 +1°C° 0 mm 1 mps 750 mmHg 75%
22:00 +1°C° 0 mm 1 mps 750 mmHg 75%
23:00 +1°C° 0 mm 1 mps 750 mmHg 75%

Day after tomorrow, 23 October, Friday

Time Temperature Precipitation Wind Pressure Humidity
00:00 0°C° 0 mm 1 mps 750 mmHg 75%
01:00 0°C° 0 mm 1 mps 750 mmHg 76%
02:00 0°C° 0 mm 1 mps 750 mmHg 78%
03:00 -1°C° 0 mm 1 mps 750 mmHg 79%
04:00 -1°C° 0 mm 1 mps 749 mmHg 80%
05:00 -3°C° 0 mm 2 mps 749 mmHg 82%
06:00 -3°C° 0 mm 2 mps 749 mmHg 83%
07:00 -2°C° 0 mm 3 mps 748 mmHg 80%
08:00 -3°C° 0 mm 4 mps 748 mmHg 77%
09:00 -2°C° 0 mm 4 mps 748 mmHg 74%
10:00 -1°C° 0.1 mm 4 mps 747 mmHg 80%
11:00 -1°C° 0.1 mm 5 mps 747 mmHg 85%
12:00 -1°C° 0.1 mm 5 mps 747 mmHg 91%
13:00 -1°C° 0.3 mm 5 mps 746 mmHg 93%
14:00 0°C° 0.3 mm 5 mps 746 mmHg 95%
15:00 -1°C° 0.3 mm 6 mps 745 mmHg 96%
16:00 0°C° 0.5 mm 5 mps 745 mmHg 96%
17:00 0°C° 0.5 mm 5 mps 744 mmHg 96%
18:00 +1°C° 0.5 mm 5 mps 744 mmHg 96%
19:00 +1°C° 0.3 mm 5 mps 743 mmHg 96%
20:00 +1°C° 0.3 mm 5 mps 743 mmHg 97%
21:00 +1°C° 0.3 mm 5 mps 742 mmHg 97%
22:00 +1°C° 0.2 mm 4 mps 742 mmHg 97%
23:00 +3°C° 0.2 mm 4 mps 741 mmHg 97%

24 October, Saturday

Time Temperature Precipitation Wind Pressure Humidity
00:00 +3°C° 0.2 mm 4 mps 741 mmHg 98%
01:00 +3°C° 0.7 mm 4 mps 740 mmHg 98%
02:00 +4°C° 0.7 mm 4 mps 739 mmHg 98%
03:00 +4°C° 0.7 mm 4 mps 738 mmHg 98%
04:00 +5°C° 1.7 mm 4 mps 737 mmHg 98%
05:00 +5°C° 1.7 mm 5 mps 736 mmHg 98%
06:00 +5°C° 1.7 mm 5 mps 736 mmHg 97%
07:00 +6°C° 1.8 mm 5 mps 735 mmHg 97%
08:00 +6°C° 1.8 mm 5 mps 734 mmHg 97%
09:00 +7°C° 1.8 mm 5 mps 734 mmHg 97%
10:00 +7°C° 0.3 mm 5 mps 734 mmHg 96%
11:00 +6°C° 0.3 mm 5 mps 735 mmHg 96%
12:00 +5°C° 0.3 mm 6 mps 735 mmHg 95%
13:00 +6°C° 0.1 mm 5 mps 736 mmHg 95%
14:00 +6°C° 0.1 mm 5 mps 737 mmHg 94%
15:00 +6°C° 0.1 mm 5 mps 738 mmHg 94%
16:00 +6°C° 0 mm 5 mps 739 mmHg 94%
17:00 +6°C° 0 mm 5 mps 740 mmHg 94%
18:00 +6°C° 0 mm 4 mps 740 mmHg 94%
19:00 +6°C° 0 mm 4 mps 741 mmHg 94%
20:00 +6°C° 0 mm 4 mps 742 mmHg 94%
21:00 +7°C° 0 mm 3 mps 742 mmHg 94%
22:00 +5°C° 0 mm 3 mps 743 mmHg 94%
23:00 +6°C° 0 mm 2 mps 743 mmHg 95%

25 October, Sunday

Time Temperature Precipitation Wind Pressure Humidity
00:00 +5°C° 0 mm 2 mps 743 mmHg 96%
01:00 +5°C° 0 mm 2 mps 744 mmHg 96%
02:00 +5°C° 0 mm 2 mps 744 mmHg 96%
03:00 +7°C° 0 mm 1 mps 744 mmHg 95%
04:00 +7°C° 0 mm 1 mps 744 mmHg 95%
05:00 +6°C° 0 mm 2 mps 744 mmHg 94%
06:00 +6°C° 0 mm 2 mps 744 mmHg 93%
07:00 +7°C° 0 mm 1 mps 744 mmHg 92%
08:00 +8°C° 0 mm 1 mps 744 mmHg 90%
09:00 +8°C° 0 mm 1 mps 744 mmHg 89%
10:00 +8°C° 0 mm 1 mps 745 mmHg 86%
11:00 +8°C° 0 mm 2 mps 745 mmHg 84%
12:00 +9°C° 0 mm 2 mps 745 mmHg 81%
13:00 +9°C° 0 mm 2 mps 745 mmHg 82%
14:00 +8°C° 0 mm 2 mps 744 mmHg 82%
15:00 +8°C° 0 mm 2 mps 744 mmHg 82%
16:00 +8°C° 0 mm 2 mps 744 mmHg 83%
17:00 +8°C° 0 mm 2 mps 744 mmHg 85%
18:00 +7°C° 0 mm 2 mps 744 mmHg 86%
19:00 +7°C° 0 mm 3 mps 744 mmHg 87%
20:00 +7°C° 0 mm 3 mps 743 mmHg 88%
21:00 +7°C° 0 mm 3 mps 743 mmHg 89%
22:00 +7°C° 0.2 mm 3 mps 743 mmHg 90%
23:00 +7°C° 0.2 mm 3 mps 743 mmHg 92%

26 October, Monday

Time Temperature Precipitation Wind Pressure Humidity
00:00 +7°C° 0.2 mm 3 mps 742 mmHg 93%
01:00 +6°C° 1 mm 4 mps 742 mmHg 94%
02:00 +6°C° 1 mm 4 mps 742 mmHg 94%
03:00 +6°C° 1 mm 5 mps 741 mmHg 95%
04:00 +6°C° 0.9 mm 5 mps 741 mmHg 94%
05:00 +6°C° 0.9 mm 5 mps 741 mmHg 94%
06:00 +6°C° 0.9 mm 5 mps 741 mmHg 94%
07:00 +5°C° 0.6 mm 6 mps 741 mmHg 93%
08:00 +5°C° 0.6 mm 6 mps 741 mmHg 92%
09:00 +5°C° 0.6 mm 7 mps 742 mmHg 91%
10:00 +5°C° 0.2 mm 7 mps 742 mmHg 89%
11:00 +5°C° 0.2 mm 7 mps 742 mmHg 88%
12:00 +5°C° 0.2 mm 7 mps 743 mmHg 86%
13:00 +5°C° 0 mm 7 mps 743 mmHg 86%
14:00 +5°C° 0 mm 8 mps 744 mmHg 85%
15:00 +4°C° 0 mm 8 mps 745 mmHg 84%
16:00 +4°C° 0 mm 8 mps 745 mmHg 83%
17:00 +2°C° 0 mm 8 mps 746 mmHg 82%
18:00 +2°C° 0 mm 8 mps 747 mmHg 82%
19:00 +2°C° 0 mm 7 mps 747 mmHg 82%
20:00 0°C° 0 mm 7 mps 748 mmHg 83%
21:00 -1°C° 0 mm 6 mps 749 mmHg 84%
22:00 -1°C° 0 mm 6 mps 749 mmHg 84%
23:00 -2°C° 0 mm 6 mps 750 mmHg 84%

27 October, Tuesday

Time Temperature Precipitation Wind Pressure Humidity
00:00 -1°C° 0 mm 5 mps 750 mmHg 84%
01:00 -2°C° 0 mm 5 mps 751 mmHg 84%
02:00 -2°C° 0 mm 5 mps 751 mmHg 84%
03:00 -2°C° 0 mm 5 mps 752 mmHg 84%
04:00 -2°C° 0 mm 4 mps 752 mmHg 84%
05:00 -2°C° 0 mm 4 mps 753 mmHg 84%
06:00 -2°C° 0 mm 4 mps 753 mmHg 84%
07:00 -2°C° 0 mm 4 mps 754 mmHg 83%
08:00 -1°C° 0 mm 4 mps 754 mmHg 83%
09:00 -1°C° 0 mm 5 mps 755 mmHg 82%
10:00 0°C° 0 mm 4 mps 755 mmHg 80%
11:00 0°C° 0 mm 4 mps 756 mmHg 78%
12:00 +1°C° 0 mm 4 mps 756 mmHg 76%
13:00 +2°C° 0 mm 3 mps 756 mmHg 75%
14:00 +2°C° 0 mm 3 mps 756 mmHg 75%
15:00 +2°C° 0 mm 3 mps 757 mmHg 74%
16:00 +2°C° 0 mm 2 mps 757 mmHg 78%
17:00 +2°C° 0 mm 2 mps 757 mmHg 81%
18:00 +1°C° 0 mm 2 mps 758 mmHg 85%
19:00 +1°C° 0 mm 2 mps 758 mmHg 87%
20:00 +2°C° 0 mm 1 mps 758 mmHg 89%
21:00 +2°C° 0 mm 1 mps 758 mmHg 91%
22:00 +2°C° 0 mm 1 mps 758 mmHg 92%
23:00 +1°C° 0 mm 2 mps 758 mmHg 93%
Show more